Location: Dötzum
(52.0808°N, 9.8063°E)
Time: 05:23:21
(UTC+00:00)

Helios 1A - Pass Details

Date: 27 May 2022
Orbit: 581 x 601 km, 98.2° (Epoch: 23 April)

Event Time Altitude Azimuth Distance (km) Brightness Sun altitude
Exits shadow 01:25:18 - 160° (SSE) 2,394 5.7 -11.6°
Reaches altitude 10° 01:26:24 10° 159° (SSE) 1,933 5.2 -11.5°
Maximum altitude 01:30:36 80° 73° (ENE) 617 3.1 -11.1°
Drops below altitude 10° 01:34:51 10° 347° (NNW) 1,956 6.3 -10.8°
Sets 01:37:02 0° 347° (NNW) 2,865 7.2 -10.6°
